Theta_e
305 305 305 305 305 305 305 304 305 305 305 305 304 303 303 302 303 303 302 303 304 305 304 304 305 306 306 305 305 305 306 307 308 308 309 309 309 309 309 309 310 311 312 313 313 314 315 315 316 315 314 312 311 311 310 311 317 321 322 322 320 323 326 320 316 319 319 319 320 320 320 321 320 321 322 320 320 318 316 318 319 314 312 313 313 313 315
305 305 305 306 306 305 305 304 305 305 304 304 304 303 303 302 302 303 303 303 304 304 303 304 304 305 305 305 305 305 305 306 307 308 309 309 309 309 309 309 309 310 311 312 313 313 314 315 313 312 314 312 310 311 309 311 318 320 319 319 319 321 325 322 318 318 318 318 319 318 317 318 318 321 322 321 322 321 319 323 323 316 312 313 313 312 314
305 305 306 306 306 306 305 305 305 305 304 304 304 304 303 302 303 303 303 303 304 303 303 303 304 304 304 305 304 304 305 305 306 307 308 308 308 309 309 309 308 309 310 311 312 312 313 314 312 311 312 311 310 310 309 311 316 318 317 318 319 322 326 324 320 319 318 319 320 317 317 320 320 321 322 321 321 320 318 319 317 316 317 316 312 312 316
305 306 306 306 306 305 305 305 305 305 304 304 304 304 303 303 303 303 303 303 303 303 302 303 303 304 304 305 304 304 305 305 305 306 308 308 307 308 309 309 309 309 310 311 312 311 311 312 312 312 311 311 310 310 309 311 314 317 317 317 319 322 324 325 325 324 322 323 324 322 321 321 320 320 322 322 322 320 319 316 315 318 320 316 316 318 318
305 306 306 306 306 305 305 305 305 305 304 303 303 304 303 303 303 302 302 303 303 303 302 302 303 304 304 304 304 304 305 304 304 305 307 306 307 308 309 308 309 309 310 310 311 311 311 311 311 311 311 311 310 309 310 311 314 316 314 314 318 320 321 323 324 323 321 320 321 321 320 321 321 321 322 322 323 323 318 315 319 325 318 312 322 330 321
305 306 306 306 306 305 305 305 305 305 304 303 303 304 303 303 302 302 303 303 303 303 302 303 303 303 304 304 305 304 304 304 304 304 305 305 306 309 309 308 308 308 308 309 310 311 311 312 312 311 311 311 311 310 311 311 312 313 311 312 316 317 319 320 319 318 317 317 318 319 320 322 322 322 322 322 324 323 319 317 323 326 318 314 329 339 326
306 306 306 306 306 305 305 305 305 304 304 303 303 304 303 303 302 302 303 303 302 302 302 303 303 303 304 305 305 304 304 304 304 304 304 305 306 307 308 307 307 307 308 308 310 311 311 312 312 311 312 311 311 311 312 311 310 311 310 312 314 316 319 320 316 315 317 316 317 320 320 321 320 321 321 321 323 323 321 322 323 323 321 320 332 339 330
306 306 305 306 306 305 305 305 305 304 304 303 304 304 303 303 303 303 303 303 302 302 303 303 303 303 304 305 304 304 304 303 304 304 304 305 306 307 306 306 306 307 307 308 309 310 310 310 310 310 311 311 311 312 311 311 311 311 310 312 313 314 317 318 315 315 317 316 317 319 319 320 319 320 321 321 322 322 321 323 322 322 323 321 327 333 331
305 305 306 306 306 305 305 305 305 305 304 304 304 304 303 303 304 303 303 303 303 303 303 303 303 303 303 304 304 304 303 303 304 304 304 305 306 306 305 306 306 307 307 308 309 309 309 309 309 309 310 310 311 311 311 311 311 311 311 312 313 312 314 315 315 316 316 316 317 318 318 319 318 318 320 321 321 321 322 323 323 322 322 322 321 323 326
304 304 305 306 306 305 306 305 305 305 304 304 304 303 303 304 304 303 303 303 303 303 303 302 303 303 303 303 303 303 303 303 303 304 305 305 305 305 305 305 306 307 308 308 308 307 307 307 308 308 308 309 309 309 310 310 311 311 311 312 312 312 313 313 313 315 317 316 316 317 318 318 317 317 320 321 321 321 321 322 324 324 323 322 320 320 326
304 304 305 306 306 306 306 306 305 305 305 304 304 304 304 304 304 304 304 304 303 302 303 302 303 303 302 303 303 303 303 303 303 304 305 304 304 304 304 305 306 307 307 307 306 306 306 307 307 308 308 309 309 309 309 309 310 311 312 312 312 314 314 314 313 315 316 315 315 317 319 319 318 319 323 326 328 328 324 321 323 323 323 323 323 324 329
304 304 304 305 305 306 306 306 305 305 305 304 304 304 304 303 304 304 304 304 304 302 302 302 302 303 302 302 303 303 303 303 303 304 304 304 304 304 304 305 306 307 307 306 306 306 307 308 308 309 309 310 310 309 309 310 310 310 311 311 312 313 315 315 316 316 315 316 317 319 320 321 319 321 329 333 334 336 333 327 325 324 323 324 324 326 329
303 303 304 303 304 305 306 306 306 305 305 305 304 304 304 303 304 303 303 304 304 303 303 303 302 302 303 303 303 303 303 303 303 303 303 304 304 304 304 305 306 306 306 305 306 307 309 310 310 310 311 311 311 311 310 310 310 310 311 311 312 313 314 315 316 315 314 316 318 320 322 320 316 323 335 336 337 340 337 330 327 328 326 325 324 325 328
301 302 303 303 304 304 305 306 306 306 305 305 304 304 304 303 304 304 303 304 304 303 303 304 303 303 303 303 303 303 303 303 303 303 304 304 304 304 304 304 305 305 305 305 307 309 310 311 310 310 311 311 311 311 311 311 310 310 310 311 311 312 313 314 314 314 314 315 316 319 319 317 318 329 338 337 337 341 340 337 336 337 336 336 334 329 325
300 301 303 305 305 305 305 306 306 306 306 305 305 304 304 303 303 304 304 304 304 304 303 303 303 303 303 303 303 303 303 303 303 303 303 303 303 304 303 304 305 305 305 307 309 311 312 311 309 309 310 309 309 310 311 312 311 311 311 311 311 312 313 314 313 312 314 314 315 317 317 317 324 335 337 335 335 337 338 339 340 341 340 340 341 340 336
301 303 305 306 306 306 306 306 306 306 305 305 305 304 304 303 303 303 304 304 304 304 304 303 303 303 303 303 303 303 303 303 303 303 304 303 303 303 303 304 306 305 305 308 311 312 312 311 310 310 310 310 310 310 312 312 312 312 312 311 311 312 312 313 313 313 314 313 313 315 317 319 329 337 336 333 334 336 337 334 335 340 339 337 339 342 344
303 304 305 306 306 306 306 306 306 306 306 305 305 304 304 304 303 303 304 304 304 304 303 303 303 303 303 303 303 303 303 303 303 304 304 304 303 303 303 304 305 305 306 309 312 311 311 311 311 311 310 311 311 311 312 312 312 315 316 313 312 313 313 313 313 313 315 315 313 314 316 319 326 334 335 333 334 337 334 328 331 338 337 335 338 342 344
304 305 306 307 307 307 307 306 306 307 306 306 305 305 305 304 303 303 303 303 304 304 303 302 303 303 303 303 303 303 303 303 303 304 304 303 303 304 304 304 304 304 307 310 311 310 310 311 311 311 311 311 310 311 312 312 313 317 318 316 314 314 313 313 313 313 314 315 315 314 315 317 323 330 334 333 334 335 333 330 334 337 335 336 339 341 343
305 305 306 307 307 307 307 307 307 307 307 306 306 305 305 304 304 304 304 304 304 304 303 303 303 302 303 303 302 303 303 303 303 304 303 304 304 304 304 304 304 305 307 310 310 309 310 310 311 311 312 312 312 312 314 314 314 315 317 317 318 317 315 314 314 313 313 315 316 315 316 322 328 331 333 332 330 331 333 334 334 334 334 336 337 338 343
305 306 306 307 307 308 308 308 308 307 307 307 306 305 305 305 304 304 304 304 304 304 303 303 303 303 303 303 302 303 303 303 303 304 303 304 304 304 304 305 305 306 308 309 308 309 309 309 310 311 311 312 314 314 313 313 314 314 314 316 318 318 317 316 315 314 314 314 315 316 320 328 333 331 332 334 332 333 335 335 334 333 333 334 334 336 341
305 306 307 307 307 308 308 308 308 308 307 307 307 306 305 305 304 304 304 304 304 304 304 303 303 303 303 303 303 303 303 303 303 303 303 303 304 304 305 306 305 305 307 308 308 308 308 308 310 311 310 311 313 313 313 313 313 312 313 315 316 319 320 320 318 315 314 314 316 320 326 331 333 331 334 337 335 333 333 333 334 333 331 331 333 335 336
305 306 306 307 308 308 308 308 309 308 308 308 307 306 305 305 305 304 304 303 304 304 304 303 304 304 304 304 303 303 303 303 303 303 303 303 303 304 304 305 304 304 306 307 307 308 308 308 309 310 310 311 312 312 312 313 312 312 313 314 316 318 319 319 320 320 318 318 320 324 327 329 330 332 335 334 331 330 330 330 332 331 329 329 331 333 334
305 306 306 307 308 308 308 308 308 308 308 308 308 307 306 305 305 304 304 304 304 304 304 304 304 304 304 304 304 304 304 304 303 303 303 303 304 304 304 304 305 304 305 306 307 308 308 309 310 310 310 311 312 312 312 311 311 311 311 312 314 315 315 317 319 320 319 320 323 325 327 328 330 331 332 330 329 328 328 329 330 329 328 328 330 331 333
306 306 307 308 309 308 308 308 308 309 308 308 308 308 306 306 305 304 304 304 304 304 304 303 303 303 303 304 304 304 304 304 304 304 304 303 303 304 304 304 304 304 305 306 306 307 308 309 310 310 310 311 311 311 311 311 311 311 311 311 312 313 314 315 316 317 317 320 325 328 330 331 331 330 329 329 329 327 327 329 329 328 327 328 330 330 331
306 307 308 309 309 308 309 309 309 309 308 308 308 308 307 306 306 305 305 304 304 304 304 303 303 303 303 303 303 304 304 304 304 304 304 304 303 304 304 305 304 305 306 306 307 308 308 309 309 310 310 310 310 310 311 311 311 312 312 312 311 312 313 313 314 316 317 318 320 322 323 325 328 330 330 329 329 329 328 329 328 328 328 329 329 330 330
308 308 309 308 308 308 308 309 309 308 308 308 308 307 307 307 306 305 305 304 304 303 303 303 303 303 303 303 304 304 304 304 304 305 305 305 304 304 304 305 305 305 305 305 306 308 308 309 309 309 309 310 310 310 311 311 311 312 312 311 310 311 312 312 313 315 315 316 317 319 321 324 327 329 329 329 330 330 329 329 328 329 329 329 329 328 329
309 309 308 308 309 309 309 309 309 308 308 308 307 307 307 307 307 306 305 304 304 304 303 303 303 303 303 303 303 303 304 304 304 305 306 306 305 305 305 304 304 305 305 305 305 307 308 308 309 308 309 310 311 311 310 310 311 311 311 310 310 311 312 312 313 315 315 316 317 321 326 328 329 329 329 329 330 330 330 330 329 329 329 329 329 329 328
309 309 308 308 309 309 309 309 309 308 308 308 307 307 307 307 307 306 305 305 304 304 304 304 303 303 303 303 304 304 304 305 305 305 305 306 306 306 305 304 304 304 305 305 305 306 307 308 308 309 309 310 311 311 311 311 311 312 311 311 311 312 312 313 314 315 316 316 317 321 325 326 326 328 329 329 330 331 330 330 330 329 329 328 328 328 329
309 308 308 308 308 309 309 309 308 308 308 307 307 307 307 307 306 306 306 305 305 304 304 304 304 304 304 304 304 305 305 305 305 305 305 306 306 306 306 305 304 305 305 305 306 306 307 308 308 309 310 311 311 311 311 311 311 312 312 312 312 312 312 312 313 313 313 314 315 318 320 321 322 324 327 328 330 331 330 329 328 327 327 327 326 327 327
309 308 308 308 308 308 309 308 308 308 308 307 307 307 306 306 306 305 306 306 305 304 305 305 305 305 304 304 304 305 305 306 306 306 306 305 305 306 306 305 305 305 305 305 306 306 307 308 308 308 309 310 310 311 311 311 311 313 313 312 313 312 311 312 313 314 314 315 315 317 319 319 320 322 325 327 329 331 330 328 326 325 324 324 325 325 325
309 308 308 308 308 309 309 308 308 308 308 307 306 306 307 308 306 305 305 305 305 305 305 305 305 305 304 304 305 305 306 306 306 306 307 306 305 306 306 306 306 306 306 306 307 307 308 308 309 309 310 311 311 310 310 310 311 312 312 312 313 313 313 313 314 314 315 315 315 316 318 318 319 322 325 327 328 329 329 327 325 323 322 322 323 324 325
309 309 308 309 309 309 309 308 308 308 308 307 306 306 307 307 306 305 305 305 305 305 305 305 305 305 305 306 306 306 307 307 308 308 308 308 307 307 306 306 306 306 307 308 308 308 308 308 308 309 311 313 312 310 310 311 311 312 312 313 314 314 313 312 312 313 314 315 317 318 319 320 322 325 326 327 327 327 327 326 325 323 322 321 322 323 324
310 309 309 309 309 309 310 309 309 308 308 307 307 306 306 306 306 305 305 305 305 305 305 305 305 306 306 306 307 307 308 309 310 310 311 311 310 308 307 307 306 306 307 308 309 309 309 310 309 310 312 314 313 311 311 312 312 312 312 313 314 313 313 313 314 315 316 317 318 319 320 322 325 326 326 326 327 327 326 326 326 325 324 324 323 323 323
310 310 310 310 310 310 310 310 309 308 308 307 307 307 307 306 306 306 305 305 305 305 305 305 305 306 306 306 307 309 309 310 311 311 312 312 311 310 309 309 307 308 309 309 309 310 311 311 311 312 313 314 313 312 313 313 313 314 315 315 315 315 315 316 316 316 318 319 321 322 323 325 327 326 326 326 327 327 326 325 326 326 326 326 325 325 324
310 310 310 310 310 309 309 309 309 308 308 308 308 308 308 308 307 306 305 305 306 306 306 305 306 306 307 307 309 310 309 310 311 311 312 313 312 311 311 310 309 310 310 309 309 311 311 312 313 314 315 316 315 314 315 315 315 317 317 317 317 316 316 316 318 319 320 322 324 324 325 326 326 326 326 327 327 327 326 325 325 326 327 327 327 326 326
311 311 311 310 309 309 309 309 308 308 308 308 308 308 309 309 308 307 305 305 306 305 305 304 305 307 308 309 309 309 309 311 312 312 313 314 314 313 313 312 312 312 311 310 310 311 313 314 315 316 317 317 317 317 317 317 316 317 317 318 318 317 317 319 322 324 324 324 324 324 325 325 326 326 326 327 327 327 326 326 325 325 326 327 328 328 328
311 312 311 309 309 310 310 309 309 309 309 308 308 309 309 309 308 307 306 305 306 306 304 304 305 306 307 308 309 309 311 313 313 313 314 315 315 315 315 315 315 315 314 314 314 314 315 316 316 317 317 318 317 317 316 315 316 317 318 319 320 321 322 323 324 324 324 324 324 325 325 325 325 326 326 326 327 327 328 328 327 327 327 328 328 328 328
312 312 310 309 311 315 313 310 309 309 309 308 309 310 310 309 308 308 307 307 307 307 305 304 304 305 305 306 308 309 311 313 313 314 315 316 316 316 315 316 316 315 315 316 315 314 314 315 315 314 315 315 314 314 315 316 317 319 321 322 322 323 324 324 324 324 325 326 326 326 326 326 327 327 327 327 327 327 328 328 329 328 328 328 328 328 328
312 312 311 311 314 315 313 310 309 309 309 309 310 311 311 310 310 309 308 307 307 306 304 304 304 304 305 306 308 310 310 311 312 313 314 315 315 315 314 314 313 312 313 315 313 310 312 314 311 310 312 313 313 314 316 318 320 321 322 323 323 324 324 325 325 325 326 327 327 327 327 328 328 327 328 328 328 328 327 327 327 328 328 328 328 329 329
312 312 313 315 315 313 310 310 309 309 310 311 311 312 312 312 312 311 310 308 308 307 305 305 306 306 306 307 309 311 311 311 312 313 312 312 313 313 311 310 310 309 312 314 311 307 309 312 311 311 313 314 314 316 318 320 322 322 322 322 323 324 325 326 326 326 326 326 326 327 327 327 327 327 327 328 328 328 328 328 328 328 328 329 329 329 329
311 311 312 313 312 310 309 310 310 310 313 314 314 314 315 315 313 313 312 313 314 312 309 308 310 311 311 309 310 312 312 313 314 314 311 311 312 312 310 309 308 310 314 315 311 307 308 312 314 314 315 315 316 319 320 321 321 321 321 321 322 323 324 324 325 325 325 325 326 326 326 327 327 327 327 327 327 328 328 328 328 328 328 328 328 328 328
311 310 310 309 308 308 310 311 312 314 316 316 315 315 317 317 317 316 316 317 319 318 315 313 315 317 315 312 311 313 314 314 315 315 313 313 313 313 310 308 309 312 317 318 313 310 312 316 319 319 318 318 319 320 320 320 319 319 319 319 320 322 322 322 323 324 324 324 325 325 325 325 325 326 326 326 327 327 327 327 326 327 327 327 327 327 327
312 310 309 309 310 312 312 313 314 317 318 316 316 317 318 318 318 319 320 319 319 319 319 319 319 319 318 316 315 315 315 315 315 315 315 314 314 314 313 312 314 317 320 317 314 314 318 320 321 321 320 319 320 319 319 320 320 319 319 319 319 320 320 320 320 321 322 323 323 324 324 324 325 325 325 326 325 325 325 325 325 325 325 325 325 325 324
312 312 312 314 315 315 316 315 315 316 317 317 317 318 318 318 318 319 320 319 319 319 320 320 319 320 320 320 319 319 318 317 318 318 317 318 318 318 318 318 319 321 319 316 315 318 321 321 320 320 320 319 319 319 319 319 319 319 319 319 318 318 319 318 318 319 320 321 322 322 322 322 323 323 324 325 325 325 325 325 325 324 323 323 323 323 323
314 314 316 317 315 314 315 317 316 316 317 317 317 317 318 318 318 318 318 317 317 318 319 319 319 320 321 321 321 321 321 321 321 320 319 321 322 321 320 320 320 319 318 317 317 320 321 321 319 319 318 318 318 317 317 317 318 319 319 319 318 318 318 318 317 318 318 318 319 319 319 319 320 320 321 321 320 321 321 322 322 322 322 322 322 322 322
314 312 313 316 315 314 315 316 316 315 316 316 315 316 316 316 315 316 316 315 316 317 318 318 319 320 321 321 322 323 322 321 321 320 320 321 322 321 321 320 319 318 318 320 320 321 321 320 319 317 317 317 316 316 315 316 316 317 318 318 319 318 318 317 316 317 318 318 318 318 318 318 318 318 318 318 317 317 318 318 319 319 319 320 320 321 321
315 312 312 315 316 315 315 316 316 315 316 316 314 314 314 315 315 315 314 315 316 317 318 318 319 320 320 321 322 323 322 321 320 319 320 321 321 320 320 319 317 316 317 320 321 321 321 320 318 317 317 316 315 315 315 315 314 315 316 316 317 317 318 317 317 317 318 318 317 317 317 317 317 317 317 317 317 317 317 317 317 317 317 317 317 317 317
315 312 312 315 316 315 316 316 316 315 315 315 314 313 314 315 316 315 314 314 315 316 317 319 321 320 319 318 319 319 320 319 319 318 319 320 319 318 317 318 317 316 316 318 320 320 320 319 318 317 317 316 315 315 314 314 313 313 313 314 314 315 316 316 316 317 318 317 316 317 317 317 317 317 317 316 316 316 316 316 316 316 316 316 316 316 315
313 312 312 314 316 316 315 314 315 314 314 314 314 313 314 314 315 314 313 314 316 317 319 319 320 320 317 316 316 316 317 319 319 317 317 318 318 317 317 317 317 316 316 316 317 318 318 318 318 317 316 315 315 314 314 314 313 312 312 312 313 313 314 314 315 316 317 316 316 317 317 316 316 316 315 315 315 315 314 314 314 315 314 315 315 315 315
311 311 312 313 315 315 314 313 314 314 313 313 313 313 313 314 314 314 313 314 317 319 319 318 317 316 315 315 315 315 315 317 318 317 316 317 318 317 317 317 317 316 316 315 315 314 314 316 318 317 316 315 314 313 313 313 312 312 311 312 312 313 313 313 314 315 316 316 316 316 316 315 315 314 314 313 313 312 312 312 312 312 312 313 313 314 314
311 312 312 313 313 313 313 314 314 313 313 313 313 312 313 313 314 314 314 315 317 317 316 316 315 315 314 315 317 317 316 316 317 317 317 317 316 316 317 317 316 315 315 314 313 312 312 313 315 316 316 314 313 313 312 312 312 311 311 311 312 312 312 312 313 313 314 315 315 315 315 315 314 313 312 312 311 311 311 310 310 310 310 310 311 311 311
313 313 313 313 312 312 312 313 313 313 312 312 311 311 312 313 312 313 314 315 315 314 314 314 315 315 314 315 317 317 317 316 315 316 316 316 315 315 316 316 315 314 314 313 313 312 312 312 313 314 314 313 312 312 312 311 311 311 311 311 310 310 311 311 311 312 312 313 313 314 314 314 313 312 311 311 311 310 310 309 309 309 309 308 308 308 308
Wind_Speed
26 27 28 28 28 28 28 28 27 26 25 21 17 12 6 4 6 12 20 27 20 6 4 5 4 3 6 8 8 8 6 7 8 7 8 8 5 4 4 6 6 4 3 4 3 3 3 3 3 3 4 6 5 9 12 12 9 5 3 3 3 2 1 4 4 1 1 2 5 6 4 5 10 11 11 12 12 13 12 6 4 6 7 5 5 8 4
26 27 27 27 27 27 27 27 26 25 23 19 16 10 5 5 6 8 15 23 14 3 5 6 4 5 9 9 8 7 6 8 8 7 7 8 7 6 5 7 6 5 5 4 4 4 2 3 5 4 3 4 6 11 13 12 9 6 5 6 3 1 0 3 5 5 5 6 8 7 4 4 7 8 11 13 14 17 15 5 2 6 11 12 9 8 4
26 26 26 26 26 25 26 26 24 23 21 18 15 7 5 6 3 4 9 15 9 5 5 5 4 7 10 10 8 8 7 8 9 9 7 7 8 7 6 7 6 7 7 3 4 6 3 2 4 4 4 4 5 11 12 10 9 8 9 10 4 1 1 1 5 9 10 8 7 6 3 2 3 4 9 14 17 20 15 5 4 8 9 12 12 7 1
25 25 24 24 25 25 25 25 23 21 19 18 14 7 4 5 3 3 6 6 5 3 4 5 5 7 9 8 6 8 9 8 9 10 7 8 10 8 6 9 8 8 10 6 4 6 4 3 3 4 4 3 4 9 10 7 9 10 12 12 5 1 1 2 1 1 2 2 2 2 3 2 3 4 5 8 14 19 16 8 8 6 5 9 13 8 4
24 24 23 23 24 24 24 24 22 19 17 16 12 5 2 2 3 6 5 3 4 3 3 7 7 7 8 6 4 8 10 8 8 8 6 8 10 7 5 11 10 9 11 7 4 6 5 3 4 4 5 3 4 8 6 4 10 11 11 11 5 0 2 3 4 4 3 4 6 5 4 5 6 7 8 7 8 14 17 14 8 7 6 12 11 7 8
24 23 23 22 23 23 23 22 21 19 16 14 10 4 2 3 3 5 3 2 4 5 6 9 9 9 9 4 4 8 10 9 9 7 6 8 8 5 4 10 10 10 11 7 5 7 4 2 4 6 6 5 6 6 3 4 10 11 8 8 5 1 1 3 3 4 4 6 8 6 4 6 7 8 11 11 9 11 14 15 10 10 10 13 6 8 11
23 23 22 22 22 22 23 21 20 18 15 13 8 3 2 3 3 3 3 3 6 8 9 10 10 10 9 4 3 8 10 10 10 7 7 8 6 5 5 9 10 9 9 7 5 6 4 2 4 6 8 8 5 4 2 2 8 11 8 6 4 2 0 3 5 6 5 7 8 6 3 5 8 9 12 13 13 12 11 12 13 13 14 16 9 9 12
22 23 22 21 21 22 22 20 18 17 15 11 6 3 2 3 3 3 4 4 6 7 7 8 8 8 7 4 5 8 10 11 11 8 7 7 4 6 8 10 10 8 8 6 4 6 6 5 5 6 8 7 4 3 2 2 6 9 6 5 5 3 1 3 5 6 5 6 7 6 6 7 10 11 12 12 12 13 12 11 13 13 13 16 14 9 10
21 22 21 21 21 21 20 19 17 15 13 9 5 3 4 3 3 3 4 5 6 6 6 6 7 6 4 5 7 8 9 11 12 10 7 6 3 7 10 11 10 7 6 6 5 6 8 8 8 8 8 6 5 4 3 4 6 6 4 3 4 3 2 2 4 5 5 4 5 9 12 12 12 13 13 14 13 13 11 9 10 11 11 13 14 11 8
21 20 20 20 21 20 19 18 16 14 12 7 4 4 5 4 3 2 3 4 4 5 6 6 6 4 4 6 9 9 10 10 11 8 4 3 4 7 9 10 8 6 6 6 7 9 11 12 11 10 9 10 9 9 9 9 7 3 3 3 2 3 3 2 3 4 4 5 6 9 11 10 10 9 9 12 14 14 13 11 12 13 11 11 11 9 7
21 20 19 19 19 20 18 17 15 14 12 7 4 6 7 6 4 2 2 4 4 4 5 6 5 5 7 11 11 10 10 10 9 6 5 8 11 10 9 9 7 5 5 6 8 11 14 15 13 10 10 12 12 11 12 13 11 7 5 3 2 3 3 3 3 3 4 6 7 9 8 7 5 1 1 6 10 11 14 15 15 14 13 10 9 9 9
22 21 20 19 19 19 18 17 14 12 12 9 5 7 9 7 5 3 2 4 5 5 5 6 6 8 12 13 11 10 10 11 10 9 10 12 13 11 9 8 6 4 4 6 10 12 12 13 12 11 11 12 14 14 14 14 13 10 8 7 5 4 4 4 3 3 5 5 5 7 8 5 5 3 1 4 6 6 10 14 14 15 16 15 13 12 11
24 23 22 21 20 19 18 17 15 12 12 10 7 8 8 7 5 3 3 4 6 6 7 9 10 11 12 11 10 10 11 12 12 12 12 12 12 11 9 6 6 6 6 9 12 11 9 8 9 9 9 9 10 12 15 16 15 14 12 11 9 7 5 4 3 4 4 3 5 8 3 8 15 8 3 1 2 2 5 8 9 8 9 12 14 14 13
27 26 24 23 22 20 18 17 16 14 12 10 9 9 8 7 6 4 2 4 6 6 7 9 9 9 9 9 9 10 11 12 12 11 10 10 11 11 9 7 8 9 8 8 8 6 4 4 5 5 5 5 6 8 12 15 16 18 17 13 12 10 7 4 4 5 5 5 8 8 6 12 14 5 4 2 2 3 4 3 3 3 5 6 8 10 13
29 28 26 24 23 22 20 17 16 16 15 12 10 10 10 8 8 7 3 3 7 8 7 8 8 8 8 9 9 9 10 10 10 9 9 9 8 8 8 9 11 11 8 5 3 3 3 3 4 3 2 3 3 3 5 7 10 16 19 16 14 12 9 7 6 6 6 6 8 8 8 9 5 3 2 3 3 2 1 2 3 1 5 8 8 8 11
31 30 27 24 24 23 21 19 17 16 17 14 11 10 11 9 8 9 6 3 5 6 4 4 6 8 9 10 9 9 8 8 8 8 8 7 7 9 9 9 10 10 7 4 2 2 2 3 3 3 3 2 3 3 2 1 2 6 11 15 16 14 10 7 7 7 7 8 9 8 8 5 3 5 1 4 3 3 4 3 3 1 7 10 9 9 11
32 31 28 25 24 24 22 21 19 17 16 16 12 11 12 11 9 10 8 3 5 7 6 7 9 8 8 9 8 7 5 5 6 6 6 7 10 11 10 8 8 7 5 3 1 1 2 3 3 4 4 2 3 4 3 2 2 1 3 8 13 13 8 7 9 9 8 9 8 7 7 4 1 2 1 4 1 5 5 5 2 3 9 11 10 11 11
32 31 28 25 25 25 24 22 21 18 16 16 14 12 13 13 11 10 8 3 4 7 7 8 10 9 7 7 8 7 5 5 5 5 5 8 8 8 9 8 7 5 3 2 2 1 3 4 3 4 4 2 3 5 4 4 5 1 3 2 8 9 8 8 10 10 10 10 9 8 6 4 3 3 0 2 1 5 5 5 1 4 10 10 10 13 12
33 31 28 25 25 26 25 23 22 20 18 16 15 14 14 14 12 12 9 4 5 7 6 7 10 11 9 8 8 7 7 7 6 5 6 6 4 6 9 7 4 3 2 1 1 1 2 3 2 3 3 2 2 3 3 3 5 2 2 1 4 7 7 8 9 9 8 9 8 8 6 4 5 4 1 1 3 4 3 2 2 6 9 9 10 11 11
33 30 27 26 25 26 25 25 24 22 20 18 16 15 16 16 14 14 12 7 4 8 11 12 15 16 14 12 11 10 8 8 6 5 6 6 4 7 7 3 0 2 2 1 1 1 1 2 2 1 2 2 2 2 2 3 5 4 4 3 2 4 6 7 8 8 7 7 9 8 6 2 6 6 3 4 4 2 2 2 3 4 7 9 9 8 9
33 29 26 26 26 25 25 25 24 22 21 18 17 17 17 16 15 15 16 12 7 6 8 8 10 14 15 15 16 16 13 12 11 8 7 7 4 3 3 2 2 2 2 1 2 1 1 2 2 1 2 3 2 2 3 4 4 3 4 5 3 4 4 4 5 5 6 8 7 4 4 3 3 5 4 4 2 1 1 3 2 2 4 7 7 7 8
35 32 28 26 25 25 25 25 23 22 20 18 17 17 16 15 13 13 15 14 11 10 13 13 15 20 23 25 26 27 25 23 21 16 11 7 5 5 6 6 5 4 2 2 3 2 1 2 2 2 3 3 2 3 4 4 3 1 2 4 4 2 1 3 4 4 5 7 7 6 9 10 8 6 2 5 5 3 4 3 1 3 3 5 5 7 8
36 33 29 26 25 25 25 24 22 21 19 17 17 18 17 14 13 13 12 12 12 13 18 20 20 21 23 23 25 26 26 26 26 24 19 12 7 7 8 8 6 4 3 4 4 3 3 3 2 2 4 3 2 4 4 3 4 4 4 5 5 5 6 4 2 4 7 9 9 10 10 10 11 8 2 5 6 4 4 2 1 4 4 5 5 5 6
35 33 29 26 25 26 25 23 21 20 18 16 16 19 19 17 16 14 11 8 7 7 10 11 10 10 13 14 14 14 17 20 23 25 24 18 10 7 7 7 6 5 5 7 6 3 3 3 2 3 4 2 1 4 5 5 5 6 6 7 6 5 4 3 4 6 6 5 6 7 7 8 9 8 4 3 4 5 4 3 4 6 5 5 5 4 5
34 32 29 27 26 26 25 22 21 19 18 16 15 17 18 18 18 17 13 8 4 3 5 6 7 9 11 13 11 11 13 15 18 20 22 22 19 13 8 6 9 9 6 5 5 4 3 3 3 4 5 2 2 4 5 5 4 4 6 7 6 4 3 4 6 6 5 7 11 10 9 11 12 10 6 3 5 5 5 5 8 9 7 5 5 6 6
33 32 31 29 29 27 24 21 19 18 17 15 15 15 17 17 17 17 15 8 3 3 5 6 6 6 8 11 14 14 13 15 17 19 22 24 26 23 15 8 9 10 7 4 4 4 4 4 4 5 5 3 3 4 6 6 6 7 9 9 8 7 7 7 7 6 7 11 13 9 7 10 13 13 9 6 6 6 7 8 11 13 9 6 7 8 7
33 34 32 30 30 29 24 20 18 17 15 14 14 14 16 18 18 18 16 10 3 2 5 5 4 5 8 16 23 21 15 14 16 18 20 22 23 23 19 13 10 9 8 7 6 5 5 6 6 7 7 5 4 5 7 7 7 9 11 11 8 8 9 8 6 6 8 10 8 4 3 6 9 11 10 10 8 6 8 10 12 14 9 6 7 8 8
35 36 33 30 30 29 25 21 18 15 13 12 12 13 15 17 19 20 20 18 11 4 3 4 5 7 10 15 19 15 10 11 13 15 18 20 21 21 18 14 11 10 9 8 6 5 6 7 7 6 5 4 5 6 6 6 6 9 10 9 7 7 8 8 7 8 11 12 9 5 4 6 9 10 10 11 9 5 11 12 12 13 9 6 7 8 8
38 38 34 31 30 28 25 22 17 13 11 10 10 9 12 16 20 22 22 23 19 9 3 4 6 7 8 10 14 13 11 11 13 14 15 16 18 18 16 14 12 11 9 7 6 6 7 7 6 6 4 3 2 4 4 5 7 9 10 8 8 9 11 12 12 14 16 15 13 9 6 8 13 14 13 13 7 7 13 12 12 13 9 7 8 8 8
41 39 35 33 31 28 24 19 13 10 9 8 5 4 4 7 14 20 22 24 23 13 3 4 5 4 5 8 12 15 14 10 10 13 14 13 14 14 13 13 11 10 8 8 7 7 6 5 6 7 6 5 3 3 3 4 7 9 11 11 11 12 13 13 14 15 15 14 13 11 9 11 13 14 16 16 7 10 13 10 12 13 9 8 9 9 8
41 39 36 34 31 27 21 14 10 8 9 9 6 2 2 1 4 9 14 21 23 14 3 4 5 4 4 5 7 10 13 10 8 10 11 12 11 12 13 12 9 8 9 8 7 7 6 5 5 5 5 8 6 3 3 4 6 10 13 12 9 9 10 11 12 15 16 16 15 14 12 11 11 11 14 16 7 12 14 11 13 14 11 9 10 9 9
41 39 36 33 29 22 15 9 6 8 13 15 10 5 2 1 1 5 11 18 19 11 2 2 4 3 3 4 4 7 10 9 6 5 6 8 8 9 11 10 7 8 9 8 6 6 6 7 7 6 5 7 6 3 4 6 9 14 17 12 6 6 10 13 14 16 17 16 14 13 12 12 11 12 13 11 6 12 15 13 12 12 9 8 9 10 12
40 37 34 30 24 16 11 6 5 9 12 14 14 12 9 6 3 6 13 17 13 6 2 2 3 3 3 4 5 5 5 4 3 2 3 5 6 5 6 7 6 7 9 8 6 5 4 5 6 6 5 5 4 3 6 10 14 17 17 13 11 12 14 15 15 15 15 13 12 13 13 11 10 11 10 6 6 11 15 13 9 8 9 9 9 11 12
37 33 28 24 17 11 8 5 2 8 8 9 11 13 13 10 8 10 15 15 8 2 3 3 3 3 3 4 4 1 1 2 2 2 2 3 4 3 3 5 5 5 8 8 6 6 6 5 5 5 4 5 4 5 8 10 13 14 13 14 14 13 12 14 15 15 14 11 10 13 11 7 7 9 9 9 9 11 14 13 8 7 10 11 10 9 9
33 26 21 17 12 6 4 5 6 6 5 6 6 7 7 6 9 14 18 14 5 1 3 2 2 3 3 5 4 1 2 3 3 3 2 1 3 3 2 3 4 4 5 5 5 7 8 6 5 5 4 4 5 7 7 9 11 12 12 13 12 11 12 13 12 10 8 5 5 7 8 9 10 11 11 11 10 10 12 13 10 8 8 10 11 9 6
25 18 15 12 7 3 4 4 4 4 3 3 3 5 6 4 4 14 21 14 3 0 2 2 2 3 2 4 4 3 4 4 3 2 2 1 2 3 2 2 3 3 3 3 5 6 4 2 3 5 5 4 5 5 5 8 13 16 16 15 12 11 13 10 3 5 7 7 7 8 9 9 9 8 8 8 7 9 11 13 13 11 10 10 9 8 6
19 13 11 8 4 0 2 2 3 1 4 6 7 6 3 4 4 8 13 9 3 2 2 1 3 4 2 3 3 3 3 4 2 2 2 2 1 1 2 2 2 2 2 3 3 3 1 1 3 6 6 5 6 8 8 9 13 14 14 13 10 8 9 6 8 11 11 11 10 9 8 7 6 6 8 7 7 8 9 9 10 11 11 10 8 7 6
17 10 6 4 3 1 1 1 4 9 11 7 4 1 2 4 4 3 4 3 2 3 2 1 4 3 1 3 3 2 2 3 3 2 2 1 2 2 1 1 1 2 3 3 1 3 2 2 2 4 5 6 8 10 10 10 11 9 8 9 8 5 4 7 11 14 13 13 12 10 9 9 8 7 8 8 7 7 6 5 6 7 8 8 8 8 7
16 8 3 3 2 1 3 8 13 13 7 1 2 1 1 2 1 1 2 1 1 2 2 2 4 3 3 4 4 2 2 2 3 2 2 2 2 2 2 2 2 2 3 2 2 4 2 2 1 3 4 6 9 12 11 8 7 6 8 10 9 3 4 6 8 10 11 11 10 9 8 9 9 8 7 7 7 6 6 6 7 8 8 9 9 9 9
15 8 3 2 2 5 12 16 13 5 1 2 1 1 1 1 1 1 1 1 2 2 2 3 3 3 5 5 4 2 3 3 2 3 2 2 2 1 1 2 2 2 2 3 1 3 1 2 1 2 3 5 9 12 9 5 6 8 10 13 12 9 9 8 8 10 12 11 11 9 9 9 9 9 8 8 8 8 8 8 8 9 10 11 11 11 11
11 6 3 4 8 14 18 14 6 0 1 1 1 1 1 1 0 1 0 1 2 1 2 2 3 3 3 5 3 2 3 3 2 1 0 1 1 0 1 2 1 1 2 2 0 2 1 1 1 2 4 6 8 10 10 11 12 12 12 13 13 12 12 12 12 13 13 12 10 9 9 10 10 9 9 9 9 9 10 10 9 10 11 12 12 13 13
9 8 8 10 13 14 10 6 3 1 1 2 2 2 2 2 1 1 1 2 2 2 1 1 2 4 1 3 3 2 2 2 2 0 0 1 1 0 1 2 1 1 2 2 1 1 1 2 4 6 7 8 10 13 14 13 12 13 13 13 13 13 14 15 15 13 12 12 10 9 9 10 10 8 8 9 9 9 10 10 10 10 11 12 14 15 15
10 7 6 6 6 5 2 2 3 2 2 2 3 3 3 3 3 3 3 1 1 3 2 1 2 3 1 2 2 2 1 2 2 1 1 1 0 0 1 2 2 2 2 2 2 2 4 5 6 7 9 11 13 14 14 13 12 13 13 13 12 13 15 16 16 15 14 13 11 10 10 10 11 11 12 11 11 11 11 12 13 13 14 16 18 18 18
9 6 3 2 2 3 2 3 3 3 4 4 3 4 5 6 6 6 5 4 4 5 4 4 4 4 3 2 2 1 1 1 2 1 2 2 1 1 2 3 3 2 2 2 3 3 4 6 7 7 9 10 11 12 12 12 12 12 13 14 15 16 18 18 17 15 14 13 12 11 11 10 11 13 14 14 13 12 10 11 15 19 20 21 20 19 19
6 4 3 3 3 3 3 3 2 3 4 4 3 3 6 8 8 8 7 5 5 6 7 6 6 5 5 3 2 1 2 2 1 1 2 3 2 2 3 3 3 3 3 3 3 4 5 6 7 9 11 11 11 12 12 11 11 12 13 16 18 18 18 18 17 15 14 14 13 13 13 12 12 12 13 17 20 19 15 14 17 21 23 22 20 19 19
3 1 2 4 5 4 3 3 3 3 3 4 5 6 7 7 8 7 6 4 4 6 7 7 6 5 5 4 2 1 2 2 2 2 2 2 3 3 2 1 2 4 4 4 5 6 8 9 8 9 11 11 11 11 12 11 11 12 12 13 15 16 16 16 16 14 14 14 15 14 13 13 13 14 16 20 24 24 22 21 23 24 23 20 18 18 20
2 1 2 3 4 3 3 3 3 3 3 4 6 7 6 5 5 5 4 4 4 5 5 5 3 2 2 2 2 2 2 2 3 3 2 2 3 3 2 2 4 4 4 5 6 6 7 8 9 9 10 10 10 11 12 12 12 13 13 13 14 15 15 15 14 13 13 14 14 13 11 12 15 17 17 18 20 21 23 25 26 26 24 21 19 19 20
1 1 2 3 2 3 4 4 3 3 3 3 4 5 5 4 3 5 5 4 4 4 5 4 2 1 2 2 2 3 3 3 3 4 3 2 3 3 3 4 4 3 3 6 8 7 7 8 8 7 8 8 10 10 11 11 12 14 15 15 15 15 16 16 15 14 15 15 13 11 11 14 17 18 17 16 17 19 21 23 25 25 24 23 21 20 19
4 2 3 2 1 1 4 5 4 5 6 6 6 7 7 6 7 8 7 5 4 4 3 2 1 2 3 3 3 4 5 4 4 3 3 4 5 4 4 4 5 4 5 6 7 7 8 8 7 7 8 9 9 9 9 9 11 13 13 14 14 14 14 14 14 16 17 17 14 12 13 15 16 17 16 15 15 17 19 21 23 24 23 22 20 20 20
5 3 2 3 3 3 4 5 5 7 9 8 8 8 8 8 8 8 7 6 5 4 2 1 1 3 3 2 3 5 5 4 3 3 4 6 6 4 4 5 5 5 5 6 6 7 7 7 7 7 9 9 9 8 8 8 10 10 11 12 13 13 13 14 15 17 18 19 18 17 17 17 16 15 15 15 16 19 21 22 22 22 23 22 21 20 20
4 3 2 2 4 4 4 4 5 6 7 8 8 8 8 7 8 9 9 7 4 4 5 4 3 2 3 4 4 4 3 3 4 5 6 5 4 4 6 6 6 5 5 6 6 6 6 7 7 7 8 8 9 8 8 8 9 9 10 11 12 13 14 16 17 17 18 19 20 20 19 17 15 16 18 20 22 22 20 19 19 21 23 23 22 22 21
3 2 1 3 4 5 4 3 3 4 5 6 6 7 8 7 7 9 10 7 5 7 6 4 3 3 4 5 4 3 2 3 5 7 6 4 3 4 5 5 5 5 5 5 5 5 5 6 7 7 8 8 8 8 8 8 9 10 11 12 13 13 14 14 14 15 16 16 16 16 16 16 16 18 21 22 19 15 12 12 16 20 21 20 21 22 22
Wind_Direction
348 349 350 349 349 351 352 353 355 354 355 356 354 349 341 350 315 307 344 357 344 335 60 15 4 17 348 337 318 313 325 334 341 346 343 346 345 332 321 328 341 351 341 330 330 343 352 20 48 75 85 65 14 346 344 341 347 10 29 27 9 348 188 202 209 214 289 231 227 238 254 234 222 216 204 201 198 197 209 220 168 182 202 186 220 253 244
348 349 349 349 349 349 351 352 354 356 357 356 351 348 337 328 299 295 345 358 352 19 48 4 350 354 342 336 336 340 348 347 348 343 338 352 354 335 337 345 344 343 333 336 16 6 350 63 59 52 66 58 1 344 349 354 5 26 18 356 336 310 226 191 195 196 208 221 224 220 202 202 226 225 214 209 203 205 212 200 130 213 206 195 217 240 217
348 349 349 349 349 349 350 352 354 356 358 357 352 342 320 326 297 263 335 357 12 61 51 5 351 355 346 337 341 353 353 348 350 343 341 4 356 331 340 347 342 349 343 344 41 21 3 48 56 65 53 36 359 344 343 354 12 18 4 353 335 284 3 228 210 206 205 207 213 218 205 196 241 245 223 215 208 209 212 189 188 217 200 196 219 234 174
347 349 349 349 349 349 350 351 353 355 359 359 350 336 327 335 335 321 332 358 26 59 50 16 3 357 348 335 335 350 349 347 352 348 354 14 354 330 355 5 357 3 359 353 22 16 9 24 50 67 41 24 350 334 330 353 13 7 360 354 343 212 40 31 24 212 208 228 250 288 328 291 263 283 267 238 220 214 212 208 211 198 166 210 226 229 231
346 348 348 348 349 350 351 351 352 354 360 0 349 329 328 333 333 345 344 342 356 8 23 11 0 349 343 326 317 341 346 345 353 354 358 6 348 325 19 28 15 5 0 353 352 354 356 28 42 35 27 21 341 329 326 8 11 7 2 355 349 44 55 61 57 40 11 320 301 297 297 272 264 281 285 277 250 226 219 219 205 145 178 232 223 202 232
346 347 347 348 349 351 352 352 351 353 359 0 353 336 344 340 328 347 356 333 340 343 339 341 338 333 331 317 309 336 345 348 353 355 341 344 347 334 19 30 16 354 351 348 343 348 358 48 32 19 13 0 346 351 27 42 13 9 6 3 5 332 31 60 22 353 335 305 296 290 274 259 259 267 269 273 275 255 238 233 212 170 206 242 209 165 222
344 346 345 345 349 350 351 351 350 352 356 358 354 346 351 335 313 335 3 330 319 317 314 320 326 328 326 319 335 341 343 344 347 348 330 327 349 6 6 11 4 343 341 351 353 349 352 14 21 16 2 349 342 352 21 51 19 9 4 12 9 312 334 44 348 325 316 305 299 297 289 273 270 268 265 266 269 265 259 252 240 222 229 245 226 186 218
341 344 344 343 346 348 349 349 349 350 353 356 354 336 336 342 323 326 332 317 311 311 313 319 324 328 322 324 352 346 339 340 339 335 316 298 330 20 2 349 346 331 329 339 333 337 342 330 332 345 341 338 341 350 357 19 11 5 3 8 359 335 353 19 343 318 301 305 307 303 306 301 287 274 262 259 260 259 254 249 249 243 239 245 242 224 222
339 342 342 341 342 344 346 346 346 347 347 351 350 321 305 296 280 296 312 316 316 316 323 327 322 323 327 338 348 341 332 336 335 326 304 263 297 10 350 331 331 325 321 322 308 321 329 309 299 306 303 295 302 311 314 327 343 359 5 355 350 334 325 351 336 304 285 303 320 317 319 310 284 267 258 251 248 250 248 239 240 239 235 242 245 243 242
337 338 338 338 338 340 342 342 341 343 342 338 326 315 312 293 264 259 287 303 309 311 319 321 315 319 332 330 330 324 318 327 331 328 316 280 320 345 330 317 319 311 310 322 320 319 314 300 294 292 277 268 274 274 273 282 291 297 312 324 325 295 291 309 304 286 286 303 317 323 322 302 270 257 254 250 248 250 251 244 239 236 233 237 238 244 259
336 334 333 334 333 335 338 337 335 336 334 326 300 298 307 302 286 265 261 282 294 305 312 312 308 313 317 317 318 313 309 319 329 326 310 308 313 317 313 305 297 292 302 309 306 305 301 293 286 276 261 255 256 257 261 265 260 252 257 266 266 262 261 275 281 269 281 300 316 314 289 257 253 263 251 264 262 257 253 247 241 235 233 244 256 255 255
335 333 330 329 328 328 331 330 329 328 324 318 294 279 290 295 289 277 263 282 295 300 297 296 295 296 302 306 306 304 305 312 319 312 301 302 304 304 307 301 285 286 300 293 294 299 298 291 282 268 251 242 241 244 249 253 252 245 234 228 240 252 247 252 247 248 276 298 305 273 242 245 306 351 80 270 264 257 264 259 248 239 232 237 246 246 247
333 330 328 327 324 323 324 324 323 319 314 309 283 265 281 294 285 266 257 271 282 288 288 291 290 287 291 297 296 298 304 306 308 305 300 301 303 304 307 301 292 305 314 302 300 300 296 290 284 274 257 235 229 233 237 239 242 240 229 219 223 230 237 244 227 230 256 262 239 235 251 326 315 318 56 11 267 322 299 261 242 248 248 242 239 235 238
331 327 323 321 320 319 317 317 317 312 306 299 284 274 278 275 262 257 259 265 272 282 287 291 292 287 284 291 298 303 307 306 307 310 305 301 302 303 305 307 307 311 310 303 298 286 276 283 281 276 261 229 220 223 223 226 230 232 226 215 209 216 224 231 227 223 225 236 246 253 304 314 298 297 55 18 295 346 333 262 252 324 341 312 277 252 246
330 327 320 315 315 314 311 310 311 309 305 298 287 279 272 263 259 262 254 256 278 286 281 272 279 290 293 296 302 306 307 308 312 314 309 303 298 295 302 312 312 307 302 294 284 263 267 278 274 272 253 230 244 233 208 212 222 225 224 215 203 205 210 211 219 217 211 232 253 259 269 271 245 151 74 319 289 270 227 234 257 349 23 360 332 297 279
329 327 320 313 311 309 304 302 302 303 303 296 283 274 273 268 259 257 255 259 276 282 277 263 276 288 290 293 296 293 291 302 314 316 311 310 312 310 311 314 310 306 307 298 267 268 279 269 269 274 266 268 290 273 224 234 233 215 216 213 205 205 211 217 230 232 214 219 235 240 243 241 149 130 201 319 312 191 192 237 240 47 10 349 331 316 305
328 327 320 313 310 306 300 297 293 292 294 291 280 268 268 268 257 250 250 249 254 262 274 280 282 285 282 285 289 283 275 290 302 304 306 312 316 317 320 324 316 312 317 305 270 283 275 267 278 278 269 275 287 269 247 253 267 142 155 195 198 201 209 216 226 236 228 224 236 240 238 246 123 135 271 331 348 167 204 255 238 28 348 332 325 319 309
326 326 320 312 309 305 300 296 290 285 282 282 277 266 262 268 265 249 243 251 257 262 270 266 265 271 275 278 283 281 279 289 290 288 294 302 309 318 326 327 317 312 328 318 294 297 274 271 283 285 277 243 231 258 262 242 244 275 60 164 197 200 209 213 219 228 229 228 239 248 244 235 211 195 234 10 151 184 226 253 245 336 327 329 330 320 309
324 323 317 311 308 305 301 298 292 285 277 271 268 258 255 262 260 239 230 241 255 256 264 263 262 268 272 272 275 275 272 276 279 285 290 291 310 327 321 313 294 291 322 317 279 265 275 286 294 287 283 237 215 273 290 245 247 290 4 253 204 200 208 215 221 226 225 229 239 254 261 225 170 167 139 144 204 229 253 270 286 305 320 335 331 317 315
322 319 316 313 309 305 303 301 294 286 278 268 259 253 254 260 258 242 233 234 254 268 270 266 263 266 267 263 262 264 267 266 261 262 270 276 310 329 319 305 260 314 308 293 292 279 273 296 311 305 295 279 280 329 325 261 263 275 272 261 226 211 221 224 220 216 220 233 233 239 262 218 148 157 178 194 215 263 345 312 296 318 334 335 327 317 322
320 317 315 315 313 309 307 304 297 288 281 270 257 250 251 253 251 248 245 241 246 275 278 265 256 259 261 259 257 258 260 260 257 255 262 270 282 299 297 298 328 332 329 320 310 305 295 310 311 303 302 295 289 314 315 301 290 261 246 258 242 201 214 240 234 213 214 223 218 227 309 322 199 205 206 182 176 113 146 256 286 26 359 335 327 321 325
322 320 318 317 315 313 310 306 300 292 284 275 259 246 241 241 243 250 251 240 233 253 267 271 271 269 267 264 260 258 255 255 256 255 256 264 260 243 253 270 271 267 287 305 286 275 282 298 288 277 288 287 277 295 306 305 302 283 249 253 239 200 316 298 265 247 250 254 260 293 317 315 293 273 213 144 151 163 179 217 271 51 21 346 326 318 330
321 321 320 318 316 314 312 307 302 295 288 279 262 242 233 235 237 240 241 236 237 258 267 269 273 274 268 263 261 258 252 250 250 246 241 244 255 249 249 256 257 250 238 239 256 280 290 282 272 269 275 265 265 295 299 274 269 282 280 265 271 310 341 339 287 296 306 291 269 264 276 288 290 286 245 145 153 164 170 177 100 61 30 355 327 325 345
318 317 318 319 318 316 313 308 303 298 290 282 267 248 240 239 235 228 227 233 249 274 272 263 261 265 267 273 277 265 248 242 244 240 233 231 236 247 245 235 229 234 235 229 232 253 285 280 258 254 267 259 249 284 284 272 272 280 281 279 282 299 340 347 292 294 307 294 265 256 266 276 275 268 248 176 165 160 156 144 96 67 35 2 350 358 14
318 317 318 319 318 317 314 308 304 300 293 284 273 254 242 238 233 225 222 228 242 279 287 277 261 262 277 288 283 264 254 253 249 237 226 219 219 230 243 227 214 224 243 244 226 223 253 266 256 263 274 266 242 267 271 267 274 284 281 281 280 291 342 334 288 268 262 270 279 292 302 293 277 261 249 212 175 154 130 110 88 68 41 14 18 25 35
319 320 320 320 320 320 316 309 303 300 293 285 275 256 240 237 234 224 217 219 231 246 264 280 281 282 299 296 277 265 264 262 248 233 222 217 217 223 234 238 229 232 247 261 244 237 253 258 253 262 267 247 226 257 266 265 274 282 279 275 271 276 291 289 278 279 279 274 276 283 290 281 267 253 247 233 195 154 117 95 80 66 41 16 32 35 33
322 322 322 322 322 321 318 312 304 298 290 280 272 260 245 241 239 229 216 205 188 231 248 254 277 306 307 293 286 281 271 253 239 228 224 221 217 220 226 234 240 242 246 252 252 250 253 253 252 256 255 248 246 256 261 265 270 271 271 267 258 258 263 259 262 275 269 259 258 256 259 270 261 241 228 226 215 155 99 79 73 68 47 18 38 46 37
326 325 323 323 322 321 319 314 305 297 287 273 266 262 252 245 242 238 230 221 214 229 275 260 281 310 304 290 289 288 269 244 233 225 224 222 217 217 221 227 233 237 238 242 246 245 243 245 251 252 244 241 255 256 254 258 259 259 260 252 229 229 244 245 245 255 257 258 266 275 283 296 287 263 235 229 226 129 87 76 75 74 56 28 41 50 44
329 327 324 323 323 322 319 313 304 294 278 262 257 259 257 251 246 242 237 229 222 223 271 274 275 293 290 285 293 293 276 249 231 225 227 222 216 216 220 223 225 226 228 231 233 239 244 242 247 253 233 186 239 266 259 256 257 255 251 242 225 224 233 234 238 252 262 267 271 274 275 276 280 277 265 252 235 113 94 88 85 81 65 45 47 47 46
331 328 324 324 325 324 320 311 297 280 258 239 232 244 259 261 249 239 233 228 222 219 241 271 268 291 287 278 288 291 285 264 232 227 228 222 218 216 215 218 222 222 224 230 232 239 250 244 242 249 226 184 203 273 255 241 259 262 255 246 237 236 241 240 239 247 257 263 265 268 266 262 271 281 273 259 233 107 99 95 88 85 75 62 58 50 46
331 328 326 327 328 327 322 305 281 252 218 193 174 187 248 278 242 224 217 215 214 212 225 258 258 296 300 259 260 278 283 276 252 234 227 223 224 217 208 211 218 215 218 229 235 239 249 243 238 243 211 189 199 244 242 235 262 269 261 250 231 228 246 253 250 252 258 262 263 266 265 261 267 273 260 246 206 109 103 101 92 89 84 73 68 58 46
332 332 332 332 331 330 325 302 255 218 204 197 190 192 212 216 185 179 180 190 198 202 224 266 259 289 295 267 263 273 276 276 264 240 224 216 215 209 202 204 209 210 215 224 231 236 241 237 236 239 210 188 195 229 238 232 246 258 263 262 247 239 252 258 258 257 255 251 251 259 264 259 252 245 236 225 174 113 105 103 100 102 101 89 79 69 54
336 337 336 333 333 337 338 318 246 210 209 217 224 231 237 243 226 178 167 169 178 189 196 233 266 274 273 297 306 288 273 276 268 251 235 208 191 187 195 199 202 211 216 217 221 231 229 219 225 230 206 182 192 236 242 236 242 255 267 273 267 259 256 255 254 253 249 239 227 231 245 250 240 226 215 190 132 109 106 107 115 126 117 97 81 75 69
340 339 335 333 338 348 356 0 168 181 195 220 241 253 257 250 234 202 175 163 162 191 188 195 266 271 270 300 309 304 36 327 292 283 281 203 182 180 188 184 187 207 213 211 221 240 239 234 241 243 215 184 198 236 249 249 252 259 265 265 263 265 266 264 259 254 251 241 216 208 215 213 191 182 164 131 106 102 108 116 130 136 117 100 86 79 79
342 340 334 335 345 5 40 72 112 146 184 215 241 279 294 276 242 214 191 173 158 223 200 199 256 264 284 304 303 346 18 323 285 282 302 223 203 211 196 174 190 212 208 201 221 241 244 245 250 248 230 204 209 226 247 268 278 278 273 270 270 271 272 272 266 249 233 216 173 155 149 152 161 158 139 123 113 112 118 122 120 108 96 95 96 93 83
345 341 334 333 344 43 81 92 121 143 177 210 251 307 324 321 238 207 197 187 170 189 192 218 248 233 258 296 305 337 338 314 288 266 264 250 234 230 207 198 220 221 193 190 223 240 241 233 246 254 250 238 238 251 283 296 294 291 288 284 278 262 254 254 224 148 146 141 131 122 122 141 162 150 122 113 115 119 123 126 122 113 103 98 99 98 90
350 343 333 329 325 8 83 114 151 233 297 289 291 307 345 71 110 178 191 194 202 190 162 251 257 238 247 279 287 317 321 312 321 314 274 272 284 254 225 229 247 251 228 223 240 269 283 255 266 271 269 271 283 295 300 290 286 287 287 287 287 274 253 217 140 126 125 125 122 116 115 133 150 136 119 117 117 118 121 123 124 124 118 113 107 99 96
358 355 336 324 326 9 87 68 317 320 321 311 283 249 127 104 96 140 175 189 215 187 156 241 252 233 211 242 255 290 315 313 329 328 299 312 327 309 277 267 301 314 284 263 336 359 312 276 290 288 282 293 298 293 286 281 283 289 295 299 305 296 236 181 148 137 132 130 131 130 131 138 140 130 121 118 113 113 114 109 108 111 109 108 110 107 103
7 16 358 332 357 40 330 324 322 322 328 70 135 140 135 123 104 128 148 180 238 203 185 243 248 214 195 227 254 265 232 259 300 303 304 341 341 329 331 333 339 338 301 288 14 20 324 288 338 316 302 308 301 290 287 293 303 323 343 344 350 33 139 153 142 132 126 124 127 129 130 133 132 126 120 115 109 106 106 106 109 110 108 107 111 112 108
12 23 20 0 350 318 319 326 329 330 112 125 78 5 106 133 143 143 164 264 268 225 199 228 247 213 198 226 274 274 197 211 296 316 331 347 333 327 346 331 329 344 312 288 0 39 353 300 334 328 309 299 292 293 305 348 16 15 8 0 8 44 83 94 98 104 103 100 102 108 110 115 121 121 117 116 115 113 111 110 111 112 112 110 108 107 106
5 8 347 315 308 311 318 329 339 38 121 31 6 18 26 25 100 151 179 313 308 283 196 212 277 278 211 206 238 251 212 219 260 293 0 325 293 272 351 315 315 0 321 288 82 79 5 301 354 349 311 292 300 327 8 38 38 26 13 3 6 28 53 63 73 90 98 98 99 103 103 104 108 109 111 115 118 118 115 112 109 108 107 106 104 100 97
330 315 300 296 299 303 315 341 16 37 21 14 10 358 349 353 10 4 355 0 337 322 285 196 292 312 262 182 207 235 228 233 242 199 347 303 293 115 289 288 313 23 346 306 303 40 354 15 36 20 358 349 357 13 28 37 36 29 22 13 15 29 40 44 52 66 78 84 87 89 88 89 91 92 98 104 106 105 102 98 95 93 90 89 89 87 82
342 328 306 301 304 303 320 15 18 18 26 11 1 0 356 354 355 349 348 6 336 323 331 339 308 313 331 169 217 240 231 237 248 262 282 283 293 44 313 318 358 4 338 333 350 7 27 39 36 19 7 6 12 20 25 26 28 32 29 23 27 42 47 43 42 47 52 58 65 71 75 80 82 82 82 83 86 89 89 85 85 87 84 80 79 78 77
2 359 356 356 328 323 357 23 19 12 8 359 358 3 357 350 348 346 345 346 333 323 328 334 328 331 347 344 295 281 271 245 229 242 300 308 310 329 344 5 4 336 332 2 359 2 37 44 30 14 8 8 9 14 19 19 20 25 29 28 33 45 51 48 43 44 47 49 53 59 64 67 69 71 73 74 77 82 86 85 85 84 81 77 74 71 73
14 1 0 21 14 1 18 35 19 358 359 357 351 350 346 340 337 334 333 328 311 309 320 331 332 335 343 338 309 307 334 315 283 343 336 333 350 2 1 3 352 344 4 18 12 22 43 40 23 14 11 9 9 12 16 18 19 22 27 29 31 36 44 47 45 45 48 48 47 51 54 55 56 59 61 60 61 63 64 69 74 76 76 74 71 67 69
58 24 9 35 34 21 23 24 7 355 352 344 337 335 333 328 324 320 315 309 302 305 316 325 326 336 350 350 341 355 344 337 354 358 338 345 11 9 350 351 6 8 14 21 30 42 42 33 21 15 11 8 11 14 16 19 24 26 30 33 31 32 39 45 46 47 49 49 48 47 48 48 51 55 55 55 56 56 57 61 66 70 72 71 68 68 69
55 14 32 51 38 20 22 21 359 326 294 304 323 327 317 299 290 294 300 300 296 302 313 313 306 329 3 354 349 0 348 342 4 11 357 2 11 359 350 24 25 13 12 20 28 38 39 30 22 16 10 10 16 20 19 20 23 26 30 34 34 33 37 40 41 45 51 56 58 58 57 58 60 60 57 55 54 54 57 62 66 69 71 71 69 67 68
36 3 31 51 42 11 7 356 328 305 293 295 314 323 317 306 328 349 344 319 300 323 344 341 332 358 9 351 4 14 359 353 19 23 1 352 7 3 7 23 20 3 6 16 13 14 24 27 20 10 8 16 25 27 24 22 23 26 29 32 32 33 37 38 37 40 47 53 57 59 61 64 66 66 64 61 54 50 54 61 66 69 71 71 68 63 62
68 62 38 51 93 4 335 324 327 349 359 357 352 351 354 3 8 2 351 334 328 347 352 321 317 6 0 339 0 25 19 9 14 13 0 13 28 20 5 15 21 9 2 4 1 360 6 9 8 10 15 20 24 26 23 22 24 27 29 29 28 30 33 34 35 40 45 48 49 53 56 59 61 63 66 68 63 54 50 54 61 65 66 65 63 61 59
53 61 39 25 29 5 337 337 359 9 3 360 2 1 357 360 3 359 352 340 330 334 348 353 10 21 7 337 6 34 31 16 9 13 17 24 27 21 17 26 25 10 359 359 359 356 353 352 358 11 16 16 16 17 16 21 29 32 32 32 33 32 31 31 33 38 42 43 46 52 56 56 56 59 64 69 71 64 55 51 55 61 61 58 58 60 58
39 59 61 31 23 8 345 353 22 17 0 358 4 359 352 356 359 349 338 329 326 358 21 19 355 343 6 17 22 22 6 352 11 31 34 26 16 20 32 32 16 357 357 2 359 354 352 350 355 6 12 13 13 11 10 20 30 31 31 35 37 36 34 34 34 35 39 40 41 45 49 50 54 63 69 70 68 65 57 48 48 55 57 55 56 58 59
34 35 22 15 19 15 4 8 21 3 352 1 9 0 357 5 354 330 322 332 13 29 21 3 343 9 28 26 10 353 353 20 34 36 36 28 16 22 29 19 359 352 359 358 352 356 359 351 350 1 13 14 11 10 14 24 29 27 27 32 36 38 39 38 35 36 40 40 37 40 47 53 59 66 68 65 63 62 59 49 48 53 56 56 58 61 62